Weather History for Quakertown, PA

Change the Weather History Date:

Saturday, December 21, 2013

  Actual Average (KABE) Record (KABE)
Temperature  
Mean Temperature 46 °F 31 °F  
Max Temperature 59 °F 39 °F 57 °F (1957)
Min Temperature 32 °F 23 °F -3 °F (1942)
Degree Days  
Heating Degree Days 20 34  
Month to date heating degree days 658  
Since 1 July heating degree days 1838  
Cooling Degree Days 0 0  
Month to date cooling degree days 0  
Year to date cooling degree days 757  
Moisture  
Dew Point 40 °F    
Average Humidity 86    
Maximum Humidity 100    
Minimum Humidity 63    
Precipitation  
Precipitation 0.00 in 0.10 in 1.44 in (2012)
Month to date precipitation 2.57  
Year to date precipitation 44.34  
Snow  
Snow 0.00 in 0.10 in 4.10 in (1959)
Month to date snowfall 3.0  
Since 1 July snowfall 3.7  
Snow Depth -    
Sea Level Pressure  
Sea Level Pressure 29.96 in    
Wind  
Wind Speed 1 mph (South)    
Max Wind Speed 8 mph    
Max Gust Speed -    
Visibility 10 miles    
Events      
T = Trace of Precipitation, MM = Missing Value Source: NWS Daily Summary

Daily Weather History Graph

Daily Weather History Graph

Search for Another Location

Airport:

Trip Planner

Search our weather history database for the weather conditions in past years. The results will help you decide how hot, cold, wet, or windy it might be!

Date:

Astronomy

Dec. 21, 2013 Rise Set
Actual Time 7:21 AM EST 4:38 PM EST
Civil Twilight 6:50 AM EST 5:09 PM EST
Nautical Twilight 6:16 AM EST 5:43 PM EST
Astronomical Twilight 5:42 AM EST 6:16 PM EST
Moon 8:53 PM EST (12/21) 9:45 AM EST (12/21)
Length of Visible Light 10h 18m
Length of Day
9h 17m
Waning Gibbous, 84% of the Moon is Illuminated
Dec 21
Waning Gibbous
Dec 25
Last Quarter
Jan 1
New
Jan 7
First Quarter
Jan 15
Full

Hourly Weather History & Observations

Time (EST) Temp. Windchill Dew Point Humidity Pressure Visibility Wind Dir Wind Speed Gust Speed Precip Events Conditions
12:10 AM 37.4 °F - 32.0 °F 81% 29.99 in 10.0 mi Calm Calm - N/A   Mostly Cloudy
12:30 AM 37.4 °F - 32.0 °F 81% 29.98 in 10.0 mi Calm Calm - N/A   Mostly Cloudy
12:50 AM 37.4 °F - 32.0 °F 81% 29.99 in 10.0 mi Calm Calm - N/A   Scattered Clouds
1:10 AM 37.4 °F - 32.0 °F 81% 29.99 in 10.0 mi Calm Calm - N/A   Clear
1:30 AM 35.6 °F - 32.0 °F 87% 29.99 in 10.0 mi Calm Calm - N/A   Clear
1:50 AM 35.6 °F - 32.0 °F 87% 29.98 in 10.0 mi Calm Calm - N/A   Clear
2:10 AM 35.6 °F - 32.0 °F 87% 29.99 in 10.0 mi Calm Calm - N/A   Clear
2:30 AM 35.6 °F - 32.0 °F 87% 30.01 in 10.0 mi Calm Calm - N/A   Clear
2:50 AM 33.8 °F - 32.0 °F 93% 30.00 in 10.0 mi Calm Calm - N/A   Clear
3:10 AM 33.8 °F - 32.0 °F 93% 29.99 in 10.0 mi Calm Calm - N/A   Clear
3:30 AM 33.8 °F - 32.0 °F 93% 29.99 in 10.0 mi Calm Calm - N/A   Clear
3:50 AM 33.8 °F - 32.0 °F 93% 29.98 in 10.0 mi Calm Calm - N/A   Clear
4:10 AM 32.0 °F - 32.0 °F 100% 29.97 in 10.0 mi Calm Calm - N/A   Clear
4:30 AM 33.8 °F - 32.0 °F 93% 29.97 in 10.0 mi Calm Calm - N/A   Clear
4:50 AM 33.8 °F - 32.0 °F 93% 29.99 in 10.0 mi Calm Calm - N/A   Clear
5:10 AM 32.0 °F - 32.0 °F 100% 29.99 in 10.0 mi Calm Calm - N/A   Partly Cloudy
5:30 AM 33.8 °F - 32.0 °F 93% 29.99 in 10.0 mi Calm Calm - N/A   Partly Cloudy
5:50 AM 32.0 °F - 32.0 °F 100% 29.99 in 10.0 mi Calm Calm - N/A   Clear
6:10 AM 32.0 °F - 32.0 °F 100% 29.98 in 10.0 mi Calm Calm - N/A   Clear
6:30 AM 33.8 °F - 32.0 °F 93% 29.98 in 10.0 mi Calm Calm - N/A   Clear
6:50 AM 32.0 °F - 32.0 °F 100% 29.99 in 10.0 mi Calm Calm - N/A   Clear
7:10 AM 32.0 °F - 32.0 °F 100% 29.99 in 10.0 mi Calm Calm - N/A   Clear
7:30 AM 32.0 °F - 32.0 °F 100% 29.99 in 9.0 mi Calm Calm - N/A   Clear
7:50 AM 33.8 °F - 32.0 °F 93% 30.00 in 8.0 mi Calm Calm - N/A   Scattered Clouds
8:10 AM 33.8 °F - 32.0 °F 93% 30.00 in 10.0 mi Calm Calm - N/A   Mostly Cloudy
8:30 AM 35.6 °F - 32.0 °F 87% 30.00 in 10.0 mi Calm Calm - N/A   Clear
8:50 AM 37.4 °F - 35.6 °F 93% 29.99 in 10.0 mi Calm Calm - N/A   Clear
9:10 AM 37.4 °F - 33.8 °F 87% 30.00 in 10.0 mi Calm Calm - N/A   Clear
9:30 AM 39.2 °F - 35.6 °F 87% 30.01 in 10.0 mi Calm Calm - N/A   Clear
9:50 AM 41.0 °F - 37.4 °F 87% 30.01 in 10.0 mi Calm Calm - N/A   Scattered Clouds
10:10 AM 44.6 °F - 37.4 °F 76% 30.01 in 10.0 mi Calm Calm - N/A   Scattered Clouds
10:30 AM 48.2 °F - 41.0 °F 76% 29.99 in 10.0 mi South 3.5 mph - N/A   Mostly Cloudy
10:50 AM 50.0 °F - 41.0 °F 71% 29.98 in 10.0 mi South 5.8 mph - N/A   Partly Cloudy
11:10 AM 51.8 °F - 42.8 °F 71% 29.98 in 10.0 mi South 6.9 mph - N/A   Partly Cloudy
11:30 AM 51.8 °F - 42.8 °F 71% 29.97 in 10.0 mi South 4.6 mph - N/A   Mostly Cloudy
11:50 AM 51.8 °F - 42.8 °F 71% 29.96 in 10.0 mi South 4.6 mph - N/A   Scattered Clouds
12:10 PM 50.0 °F - 42.8 °F 76% 29.96 in 10.0 mi South 5.8 mph - N/A   Mostly Cloudy
12:30 PM 53.6 °F - 44.6 °F 72% 29.94 in 10.0 mi South 4.6 mph - N/A   Scattered Clouds
12:50 PM 53.6 °F - 44.6 °F 72% 29.93 in 10.0 mi South 4.6 mph - N/A   Partly Cloudy
1:10 PM 55.4 °F - 44.6 °F 67% 29.93 in 10.0 mi Calm Calm - N/A   Partly Cloudy
1:30 PM 57.2 °F - 46.4 °F 67% 29.93 in 10.0 mi South 5.8 mph - N/A   Scattered Clouds
1:50 PM 57.2 °F - 46.4 °F 67% 29.92 in 10.0 mi South 3.5 mph - N/A   Partly Cloudy
2:10 PM 59.0 °F - 46.4 °F 63% 29.92 in 10.0 mi South 3.5 mph - N/A   Clear
2:30 PM 59.0 °F - 48.2 °F 67% 29.92 in 10.0 mi SSW 5.8 mph - N/A   Clear
2:50 PM 59.0 °F - 48.2 °F 67% 29.93 in 10.0 mi SSW 6.9 mph - N/A   Clear
3:10 PM 57.2 °F - 48.2 °F 72% 29.92 in 10.0 mi South 3.5 mph - N/A   Mostly Cloudy
3:30 PM 57.2 °F - 48.2 °F 72% 29.91 in 10.0 mi SSE 3.5 mph - N/A   Mostly Cloudy
3:50 PM 57.2 °F - 48.2 °F 72% 29.95 in 10.0 mi SW 3.5 mph - N/A   Mostly Cloudy
4:10 PM 55.4 °F - 48.2 °F 77% 29.94 in 10.0 mi Calm Calm - N/A   Mostly Cloudy
4:30 PM 51.8 °F - 46.4 °F 82% 29.94 in 10.0 mi Calm Calm - N/A   Partly Cloudy
4:50 PM 48.2 °F - 44.6 °F 87% 29.95 in 10.0 mi Calm Calm - N/A   Partly Cloudy
5:10 PM 46.4 °F - 44.6 °F 93% 29.95 in 10.0 mi Calm Calm - N/A   Mostly Cloudy
5:30 PM 44.6 °F - 42.8 °F 93% 29.93 in 10.0 mi Calm Calm - N/A   Mostly Cloudy
5:50 PM 44.6 °F - 42.8 °F 93% 29.95 in 10.0 mi Calm Calm - N/A   Mostly Cloudy
6:10 PM 44.6 °F - 41.0 °F 87% 29.95 in 10.0 mi Calm Calm - N/A   Mostly Cloudy
6:30 PM 44.6 °F - 41.0 °F 87% 29.95 in 10.0 mi Calm Calm - N/A   Scattered Clouds
6:50 PM 42.8 °F - 41.0 °F 93% 29.95 in 10.0 mi Calm Calm - N/A   Scattered Clouds
7:10 PM 41.0 °F - 41.0 °F 100% 29.95 in 10.0 mi Calm Calm - N/A   Mostly Cloudy
7:30 PM 41.0 °F - 39.2 °F 93% 29.94 in 10.0 mi Calm Calm - N/A   Scattered Clouds
7:50 PM 41.0 °F - 39.2 °F 93% 29.93 in 10.0 mi Calm Calm - N/A   Clear
8:10 PM 41.0 °F - 39.2 °F 93% 29.94 in 10.0 mi Calm Calm - N/A   Clear
8:30 PM 42.8 °F 39.3 °F 41.0 °F 93% 29.93 in 10.0 mi South 5.8 mph - N/A   Clear
8:50 PM 51.8 °F - 48.2 °F 88% 29.93 in 10.0 mi South 5.8 mph - N/A   Clear
9:10 PM 51.8 °F - 48.2 °F 88% 29.93 in 10.0 mi South 3.5 mph - N/A   Clear
9:30 PM 51.8 °F - 48.2 °F 88% 29.93 in 10.0 mi South 3.5 mph - N/A   Clear
9:50 PM 50.0 °F - 48.2 °F 94% 29.93 in 10.0 mi SSW 3.5 mph - N/A   Clear
10:10 PM 51.8 °F - 48.2 °F 88% 29.93 in 10.0 mi South 4.6 mph - N/A   Clear
10:30 PM 50.0 °F - 48.2 °F 94% 29.93 in 10.0 mi South 5.8 mph - N/A   Clear
10:50 PM 53.6 °F - 50.0 °F 88% 29.92 in 10.0 mi South 6.9 mph - N/A   Partly Cloudy
11:10 PM 53.6 °F - 50.0 °F 88% 29.92 in 10.0 mi South 6.9 mph - N/A   Partly Cloudy
11:30 PM 55.4 °F - 51.8 °F 88% 29.92 in 10.0 mi South 5.8 mph - N/A   Clear
11:50 PM 55.4 °F - 51.8 °F 88% 29.91 in 10.0 mi South 8.1 mph - N/A   Clear